Lid_Strength_Index
1 1 2 3 4 5 3 2 6 1 -0 5 5 6 5 6 5 4 5 5 6 7 6 7 7 7 6 4 5 6 5 7 9 8 6 5 6 7 7 10 11 10 10 11
1 1 2 3 3 4 2 5 4 1 1 7 6 5 5 5 5 5 5 6 5 5 6 8 6 6 5 4 5 6 5 7 10 9 7 6 7 6 6 7 7 10 13 15
1 1 1 2 3 4 3 4 7 4 3 3 5 6 6 6 4 5 4 5 5 6 6 6 7 6 5 5 5 1 4 7 8 10 8 7 8 7 7 7 9 9 9 10
1 1 1 2 2 3 3 4 5 5 8 5 5 5 5 6 6 5 4 5 6 6 7 7 7 6 5 5 4 4 5 8 7 7 7 7 7 7 7 8 7 9 8 9
1 1 1 1 2 3 2 5 6 4 6 5 6 6 6 7 6 5 6 6 6 5 7 6 7 6 6 6 5 5 5 8 7 8 7 7 8 7 7 7 7 7 7 7
1 1 1 1 2 3 3 2 2 4 6 6 7 6 6 6 5 5 5 5 6 6 5 4 5 5 5 6 7 8 8 7 8 10 7 7 9 7 7 7 6 7 8 6
2 1 1 1 1 2 1 2 3 5 8 6 6 6 5 6 6 6 5 4 5 4 3 3 4 4 5 5 5 6 9 9 7 9 8 12 7 5 6 6 6 5 5 5
2 1 1 1 1 2 1 1 3 5 8 6 6 6 6 6 5 5 5 4 3 3 4 6 8 8 7 6 5 6 7 10 10 10 10 8 7 6 6 7 7 5 5 5
3 2 1 1 1 2 1 1 0 3 7 7 5 6 5 6 6 6 5 3 2 3 5 7 11 11 9 9 7 5 5 6 8 8 10 12 10 7 4 5 8 5 4 5
3 2 2 1 1 2 1 1 -0 3 6 4 4 6 6 4 5 6 5 5 4 3 7 9 10 10 9 11 11 12 11 9 10 10 11 9 7 6 6 9 10 5 5 5
3 3 2 1 1 1 1 1 -1 2 5 4 3 3 5 5 5 7 5 6 5 6 8 8 8 9 12 11 10 11 12 13 12 12 11 13 6 7 11 9 7 5 5 4
4 3 2 1 1 1 2 2 -0 0 4 4 1 1 1 2 3 4 4 5 5 5 7 7 8 12 11 13 13 9 13 11 11 10 11 7 6 6 5 6 7 7 4 4
4 3 3 2 1 1 2 2 0 2 4 4 4 4 1 0 1 1 5 4 3 4 3 6 7 11 10 14 13 11 8 7 10 10 8 8 6 4 4 5 5 5 3 3
4 4 3 2 1 1 2 2 1 2 4 7 5 1 2 0 0 1 1 2 2 3 3 6 7 8 6 11 9 10 9 9 10 10 7 7 7 5 4 4 3 3 3 3
5 4 3 2 1 2 1 2 2 1 4 8 6 3 2 1 1 2 1 2 3 4 5 6 7 5 6 6 8 10 8 10 11 12 6 8 6 5 5 5 4 3 3 3
5 4 3 3 2 2 3 6 2 1 2 5 8 3 3 2 2 2 2 3 3 4 5 5 5 4 6 8 9 6 5 4 4 5 4 4 3 3 3 3 3 3 3 3
4 4 4 3 3 2 4 5 4 3 2 6 9 7 3 2 2 3 3 2 3 4 5 5 5 5 5 7 9 5 4 4 3 3 3 4 3 4 3 2 2 3 2 2
4 4 4 4 4 3 4 2 4 2 4 5 9 8 6 2 5 5 3 4 4 4 5 5 6 5 5 8 6 4 4 4 3 3 3 3 3 2 3 2 2 3 3 3
4 4 4 3 4 5 4 2 3 2 4 8 8 9 10 4 4 4 4 4 7 4 6 6 6 7 8 6 5 5 4 4 4 3 3 3 3 3 3 3 3 3 3 3
4 4 5 7 5 2 1 4 6 7 6 6 8 5 9 5 6 6 6 5 7 9 7 5 7 8 5 4 4 3 3 3 3 5 5 4 4 4 3 3 3 3 3 3
5 6 6 4 2 4 5 8 8 8 10 8 7 6 7 4 8 8 7 8 7 10 8 8 8 9 6 4 4 3 2 3 3 3 3 3 3 4 4 3 3 3 2 2
4 4 3 4 6 7 9 10 8 9 10 6 7 7 5 5 4 6 7 8 9 11 6 8 10 7 4 4 4 3 3 3 3 3 3 3 3 3 3 3 3 2 2 3
3 5 7 7 8 12 12 13 11 10 7 6 6 7 5 5 4 6 7 11 11 7 9 9 8 5 5 3 3 3 3 3 3 3 3 3 3 2 3 3 2 2 2 2
7 8 13 10 11 10 9 8 7 5 5 7 7 6 8 6 7 7 9 7 7 10 11 10 6 6 5 4 3 3 4 3 3 3 3 3 3 3 2 2 2 2 3 3
8 8 12 10 6 5 6 5 5 5 4 5 7 7 7 9 9 8 8 9 10 9 10 7 5 6 5 5 4 4 3 3 3 3 3 3 3 3 2 2 2 2 3 3
7 8 9 7 7 7 6 6 6 4 4 4 6 9 11 11 10 10 10 10 10 8 6 6 6 5 5 4 3 3 3 3 3 3 3 3 3 3 2 2 2 2 2 3
9 9 6 6 6 6 6 6 5 3 5 8 9 11 12 9 12 12 8 9 7 6 4 5 5 5 5 4 3 3 3 3 3 3 3 3 2 2 3 3 2 2 2 2